EW9318 Weather Reports


time (UTC)temp
F
wind
direction
speed
knots
gust
knots
rain 1hr
in
rain 24hr
in
rain mn
in
humidity
%
barometer
mb
20260505010016 68 210 8.7 14.8 0.00 0.00 0.00 61 996.1
20260505005516 68 186 8.7 15.6 0.00 0.00 0.00 61 996.0
20260505005017 68 213 7.8 16.5 0.00 0.00 0.00 60 996.1
20260505004517 68 192 7.8 16.5 0.00 0.00 0.00 59 996.3
20260505004017 69 190 7.0 19.1 0.00 0.00 0.00 58 996.4
20260505003516 69 202 7.8 19.1 0.00 0.00 0.00 56 996.6
20260505003016 70 205 7.8 17.4 0.00 0.00 0.00 53 996.5
20260505002516 70 204 9.6 19.1 0.00 0.00 0.00 52 996.5
20260505002016 70 220 8.7 19.1 0.00 0.00 0.00 50 996.3
20260505001517 71 220 11.3 17.4 0.00 0.00 0.00 48 996.1
20260505001016 71 209 8.7 18.2 0.00 0.00 0.00 48 996.0
20260505000516 71 224 11.3 19.1 0.00 0.00 0.00 48 996.0
20260505000056 72 231 11.3 19.1 0.00 0.00 0.00 47 996.1
20260504235536 72 244 12.2 26.9 0.00 0.00 0.00 46 996.1
20260504235016 73 240 12.2 26.9 0.00 0.00 0.00 39 996.1
20260504234516 73 227 7.8 13.0 0.00 0.00 0.00 38 996.1
20260504234017 73 211 5.2 12.2 0.00 0.00 0.00 39 996.1
20260504233516 73 217 3.5 9.6 0.00 0.00 0.00 39 996.0
20260504233016 73 231 5.2 9.6 0.00 0.00 0.00 38 996.0
20260504232516 73 231 6.1 10.4 0.00 0.00 0.00 38 996.1
20260504232016 73 232 6.1 12.2 0.00 0.00 0.00 37 996.1
20260504231518 73 226 7.0 12.2 0.00 0.00 0.00 37 996.2
20260504231016 73 240 7.0 13.0 0.00 0.00 0.00 37 996.3
20260504230518 73 226 7.8 13.0 0.00 0.00 0.00 37 996.3
20260504230016 74 234 7.8 15.6 0.00 0.00 0.00 37 996.4
20260504225516 74 240 9.6 15.6 0.00 0.00 0.00 36 996.4
20260504225016 74 229 8.7 15.6 0.00 0.00 0.00 36 996.6
20260504224536 74 228 7.8 13.0 0.00 0.00 0.00 37 996.6
20260504224016 74 230 7.0 11.3 0.00 0.00 0.00 37 996.7
20260504223517 74 243 7.0 13.0 0.00 0.00 0.00 37 996.8
20260504223016 74 249 7.0 14.8 0.00 0.00 0.00 36 996.8
20260504222516 74 244 9.6 14.8 0.00 0.00 0.00 36 996.9
20260504222016 74 252 9.6 17.4 0.00 0.00 0.00 37 996.9
20260504221536 74 250 12.2 19.1 0.00 0.00 0.00 36 996.9
20260504221016 74 259 9.6 19.1 0.00 0.00 0.00 36 996.9
20260504220516 74 237 11.3 19.1 0.00 0.00 0.00 36 997.0
20260504220016 74 234 10.4 19.1 0.00 0.00 0.00 37 997.0
20260504215536 74 237 8.7 18.2 0.00 0.00 0.00 37 997.0
20260504215016 74 248 11.3 18.2 0.00 0.00 0.00 37 997.1
20260504214516 74 251 8.7 16.5 0.00 0.00 0.00 37 997.1
20260504214016 74 260 10.4 19.1 0.00 0.00 0.00 35 997.2
20260504213517 74 247 12.2 19.1 0.00 0.00 0.00 37 997.3
20260504213016 74 238 11.3 20.0 0.00 0.00 0.00 36 997.4
20260504212536 74 242 12.2 20.0 0.00 0.00 0.00 35 997.5
20260504212016 73 239 12.2 23.5 0.00 0.00 0.00 37 997.5
20260504211016 73 245 13.9 26.9 0.00 0.00 0.00 37 997.7
20260504210516 74 249 12.2 19.1 0.00 0.00 0.00 36 997.8
20260504210016 74 240 8.7 23.5 0.00 0.00 0.00 38 997.9
20260504205637 74 243 12.2 23.5 0.00 0.00 0.00 37 998.0
20260504205016 74 242 9.6 20.0 0.00 0.00 0.00 38 998.1
20260504204516 73 257 13.0 26.1 0.00 0.00 0.00 37 998.1
20260504204016 73 243 15.6 26.1 0.00 0.00 0.00 36 998.2
20260504203516 74 263 14.8 26.9 0.00 0.00 0.00 34 998.1
20260504203036 74 268 15.6 30.4 0.00 0.00 0.00 34 998.3
20260504202517 74 246 15.6 30.4 0.00 0.00 0.00 34 998.4
20260504202017 74 252 12.2 23.5 0.00 0.00 0.00 33 998.5
20260504201516 74 235 13.0 22.6 0.00 0.00 0.00 34 998.5
20260504201016 74 245 12.2 25.2 0.00 0.00 0.00 34 998.4
20260504200516 73 249 15.6 25.2 0.00 0.00 0.00 33 998.4
20260504200036 74 247 12.2 20.0 0.00 0.00 0.00 34 998.4
20260504195516 74 230 12.2 19.1 0.00 0.00 0.00 32 998.5
20260504195056 74 227 13.0 19.1 0.00 0.00 0.00 32 998.5
20260504194516 74 241 11.3 20.9 0.00 0.00 0.00 32 998.5
20260504194016 74 251 12.2 20.9 0.00 0.00 0.00 33 998.7
20260504193517 74 237 12.2 19.1 0.00 0.00 0.00 32 998.6
20260504193016 74 233 8.7 23.5 0.00 0.00 0.00 34 998.6
20260504192516 74 233 12.2 24.3 0.00 0.00 0.00 32 998.8
20260504192017 73 227 13.9 24.3 0.00 0.00 0.00 31 998.8
20260504191537 73 240 13.9 21.7 0.00 0.00 0.00 34 998.8
20260504191016 73 235 11.3 21.7 0.00 0.00 0.00 35 998.8
20260504190537 73 240 14.8 21.7 0.00 0.00 0.00 33 998.8
20260504190016 74 235 12.2 21.7 0.00 0.00 0.00 32 998.8
20260504185519 74 212 10.4 21.7 0.00 0.00 0.00 34 998.8
20260504185017 74 238 13.0 21.7 0.00 0.00 0.00 32 998.8
20260504184516 73 241 12.2 21.7 0.00 0.00 0.00 30 998.8
20260504184017 74 223 10.4 22.6 0.00 0.00 0.00 29 998.9
20260504183516 73 232 13.9 22.6 0.00 0.00 0.00 29 999.0
20260504183017 74 235 13.0 25.2 0.00 0.00 0.00 29 999.0
20260504182516 74 210 11.3 25.2 0.00 0.00 0.00 31 999.0
20260504182015 74 202 9.6 20.0 0.00 0.00 0.00 32 999.0
20260504181516 73 205 10.4 20.9 0.00 0.00 0.00 31 999.0
20260504181015 73 210 9.6 20.9 0.00 0.00 0.00 32 999.1
20260504180537 72 239 11.3 19.1 0.00 0.00 0.00 31 999.1
20260504180016 73 225 11.3 18.2 0.00 0.00 0.00 30 999.2
20260504175516 73 233 11.3 18.2 0.00 0.00 0.00 30 999.2
20260504175015 73 218 9.6 19.1 0.00 0.00 0.00 33 999.2
20260504174517 72 230 11.3 20.0 0.00 0.00 0.00 31 999.3
20260504174016 73 218 10.4 24.3 0.00 0.00 0.00 31 999.4
20260504173516 72 220 12.2 24.3 0.00 0.00 0.00 30 999.4
20260504173016 72 235 10.4 14.8 0.00 0.00 0.00 31 999.5
20260504172556 72 228 7.8 23.5 0.00 0.00 0.00 32 999.6
20260504172015 72 233 11.3 23.5 0.00 0.00 0.00 30 999.7
20260504171537 72 232 9.6 19.1 0.00 0.00 0.00 31 999.7
20260504171015 72 227 10.4 19.1 0.00 0.00 0.00 30 1000.0
20260504170535 72 211 10.4 18.2 0.00 0.00 0.00 31 999.9
20260504151015 65 223 7.8 19.1 0.00 0.00 0.00 49 1001.2
20260504150515 65 226 8.7 19.1 0.00 0.00 0.00 51 1001.2
20260504141015 60 217 5.2 11.3 0.00 0.00 0.00 62 1001.9
20260504140515 60 218 4.3 9.6 0.00 0.00 0.00 63 1001.9
20260504130515 55 235 7.0 12.2 0.00 0.00 0.00 72 1002.4
20260504130155 54 243 5.2 12.2 0.00 0.00 0.00 73 1002.5
20260504110557 45 209 1.7 4.3 0.00 0.00 0.00 88 1002.1
20260504100517 45 0.0 0.0 0.00 0.00 0.00 85 1001.9
20260504081518 48 157 0.9 1.7 0.00 0.00 0.00 79 1002.6
20260504081037 48 170 0.0 1.7 0.00 0.00 0.00 79 1002.6
20260504080516 49 183 0.0 3.5 0.00 0.00 0.00 78 1002.6
20260504050516 50 185 4.3 9.6 0.00 0.00 0.00 76 1004.8
20260504050016 50 189 4.3 9.6 0.00 0.00 0.00 77 1004.8
20260504045516 50 179 4.3 9.6 0.00 0.00 0.00 77 1004.8
20260504045016 50 182 3.5 7.8 0.00 0.00 0.00 77 1004.9
20260504044516 50 186 3.5 7.8 0.00 0.00 0.00 77 1004.9
20260504044016 50 172 3.5 9.6 0.00 0.00 0.00 77 1005.0
20260504043516 50 166 4.3 9.6 0.00 0.00 0.00 77 1005.0
20260504043016 50 168 3.5 7.8 0.00 0.00 0.00 77 1005.1
20260504042516 50 185 3.5 13.9 0.00 0.00 0.00 77 1005.1
20260504042056 49 173 4.3 13.9 0.00 0.00 0.00 78 1005.1
20260504041537 49 174 3.5 9.6 0.00 0.00 0.00 77 1005.0
20260504041016 49 168 3.5 9.6 0.00 0.00 0.00 78 1005.1
20260504040516 49 169 4.3 8.7 0.00 0.00 0.00 78 1005.2
20260504040016 49 155 2.6 8.7 0.00 0.00 0.00 77 1005.2
20260504035517 49 158 2.6 8.7 0.00 0.00 0.00 77 1005.3
20260504035016 49 160 2.6 8.7 0.00 0.00 0.00 77 1005.3
20260504034536 49 168 2.6 7.8 0.00 0.00 0.00 77 1005.3
20260504034017 49 164 2.6 8.7 0.00 0.00 0.00 77 1005.3
20260504033516 49 166 2.6 8.7 0.00 0.00 0.00 77 1005.4
20260504033017 49 157 2.6 7.8 0.00 0.00 0.00 77 1005.5
20260504032516 49 178 2.6 7.8 0.00 0.00 0.00 76 1005.4
20260504032016 49 160 3.5 7.8 0.00 0.00 0.00 76 1005.5
20260504031516 49 169 3.5 7.8 0.00 0.00 0.00 76 1005.5
20260504031016 49 156 3.5 9.6 0.00 0.00 0.00 76 1005.5
20260504030516 49 165 4.3 9.6 0.00 0.00 0.00 76 1005.6
20260504030016 49 161 3.5 8.7 0.00 0.00 0.00 75 1005.6
20260504025516 49 164 3.5 8.7 0.00 0.00 0.00 75 1005.6
20260504025016 50 165 3.5 8.7 0.00 0.00 0.00 75 1005.4
20260504024517 50 164 2.6 8.7 0.00 0.00 0.00 74 1005.4
20260504024016 50 156 4.3 8.7 0.00 0.00 0.00 74 1005.4
20260504023516 50 155 4.3 7.8 0.00 0.00 0.00 74 1005.3
20260504023016 50 162 2.6 7.8 0.00 0.00 0.00 73 1005.4
20260504022536 50 166 3.5 8.7 0.00 0.00 0.00 73 1005.4
20260504022016 50 159 4.3 11.3 0.00 0.00 0.00 73 1005.3
20260504021516 50 173 5.2 12.2 0.00 0.00 0.00 72 1005.4
20260504021016 50 162 4.3 12.2 0.00 0.00 0.00 72 1005.4
20260504020517 51 172 3.5 9.6 0.00 0.00 0.00 72 1005.5
20260504020017 51 159 3.5 8.7 0.00 0.00 0.00 71 1005.4
20260504015516 51 168 4.3 8.7 0.00 0.00 0.00 71 1005.5
20260504015016 51 169 4.3 8.7 0.00 0.00 0.00 71 1005.4
20260504014516 51 162 4.3 10.4 0.00 0.00 0.00 70 1005.3
20260504014017 51 167 5.2 10.4 0.00 0.00 0.00 70 1005.2
20260504013516 51 163 5.2 13.0 0.00 0.00 0.00 70 1005.2
20260504013016 51 156 6.1 13.0 0.00 0.00 0.00 69 1005.1
20260504012517 51 165 5.2 13.0 0.00 0.00 0.00 69 1005.1
20260504012016 52 171 6.1 13.9 0.00 0.00 0.00 69 1005.2
20260504011517 52 170 6.1 13.9 0.00 0.00 0.00 68 1005.2
20260504011016 52 170 7.0 13.9 0.00 0.00 0.00 68 1005.2
20260504010516 52 171 6.1 13.9 0.00 0.00 0.00 68 1005.3